Weather in Vypolzovo

Russia / Tver Oblast     57°52′35″N   33°41′56″E
temp.,
°C
wind,
m/s
gust,
m/s
humid.,
%
clouds,
%
prec.,
mm/h
press.,
hPa
HPBL,
m
14 april, wed
wed1400:00+11e2290100 0.6 101726
03:00+9sse279286 0.6 1016124
06:00+10ssw399391 0.2 1015275
09:00+12sw368981 0.5 1016484
12:00+11w3589100 0.6 1017521
15:00+9nw348690 0.6 1019380
18:00+7nnw458597 0.0 1020483
21:00+5n4992100 0.0 1021421
15 april, thu
thu1500:00+5nne4109099 0.0 1022494
03:00+4nne41079100 0.0 1022487
06:00+4nne41085100 0.0 1023494
09:00+5ne51083100 0.1 1023645
12:00+5ne51185100 1.2 1024730
15:00+5ne51188100 2.9 1025759
18:00+5ene51288100 0.4 1025802
21:00+4ene51286100 0.7 1026748
16 april, fri
fri1600:00+5ene51280100 0.0 1026700
03:00+3ene51380100 0.0 1026573
06:00+2ene51381100 0.0 1027498
09:00+4ene51376100 0.0 1027546
12:00+8ene696594 0.0 1027793
15:00+10ene685697 0.0 10271020
18:00+9ene51054100 0.0 1027856
21:00+6ene4135999 0.0 1029545
17 april, sat
sat1700:00+4ene4136865 0.0 1029450
03:00+3ene4127627 0.0 1030366
06:00+2ene4137955 0.0 1031351
09:00+6e511575 0.0 1031580
12:00+10e584018 0.0 10311091
15:00+12e57365 0.0 10301358
18:00+11e47455 0.0 10301101
21:00+5ene310665 0.0 1031247
18 april, sun
sun1800:00+3ene310735 0.0 1032213
03:00+2ene27795 0.0 1032135
06:00+1ene25845 0.0 1033108
09:00+7e36605 0.0 1032416
12:00+11e46435 0.0 10321476
15:00+13e45385 0.0 10311812
18:00+12e35445 0.0 10311369
21:00+6ene28685 0.0 1032163